Home > Weather > Bülach > Past weeks

Flag for Switzerland Weather for the Past 2 Weeks in Bülach, Zurich, Switzerland

Now
71 °F

Mild.


Feels Like: 76 °F
Forecast: 41 / 71 °F
Wind: 6 mph from Northeast

Location: Zurich-Kloten

Current Time: May 6, 2016 at 7:50:14 PM

Latest Report: May 6, 2016 at 7:00 PM


Visibility: N/A

Pressure: 29.84 "Hg

Humidity: 30%

Dew Point: 38 °F

Location of BülachLocation

Historic Weather in Bülach — Graph

°F

Bülach Temperature Yesterday

Maximum temperature yesterday: 66 °F (at 5:00 PM)
Minimum temperature yesterday: 39 °F (at 2:00 AM)
Average temperature yesterday: 53 °F

High & Low Weather Summary for the Past Weeks

 TemperatureHumidityPressure
High72 °F (May 6, 6:00 PM)100% (May 4, 3:00 AM)30.38 "Hg (May 4, 3:00 AM)
Low27 °F (Apr 28, 7:00 AM)23% (May 6, 4:00 PM)29.70 "Hg (Apr 26, 4:00 PM)
Average49 °F69%30.03 "Hg
* Reported Apr 21 6:00 PM — May 6 6:00 PM, Bülach, Weather by CustomWeather, © 2016

Note: Actual official high and low records may vary slightly from our data, if they occured in-between our weather recording intervals... More about our weather records

Advertising

Bülach Weather History for the Previous 24 Hours

Scroll right to see more
 ConditionsComfort  
Time TempWeatherWind HumidityBarometerVisibility
6:00 PM
Fri, May 6
72 °FMild.7 mph31%29.85 "HgN/A
5:00 PM71 °FPassing clouds.2 mph25%29.86 "Hg31 mi
4:00 PM71 °FMild.6 mph23%29.88 "HgN/A
3:00 PM71 °FMild.7 mph24%29.90 "HgN/A
2:00 PM70 °FPassing clouds.3 mph30%29.93 "Hg25 mi
1:00 PM67 °FMild.3 mph39%29.96 "HgN/A
12:00 PM64 °FMild.2 mph46%29.98 "HgN/A
11:00 AM61 °FPassing clouds.2 mph54%30.01 "Hg25 mi
10:00 AM58 °FCool.2 mph60%30.03 "HgN/A
9:00 AM52 °FCool.2 mph79%30.06 "HgN/A
8:00 AM48 °FPassing clouds.1 mph87%30.08 "Hg16 mi
7:00 AM41 °FQuite cool.2 mph97%30.10 "HgN/A
6:00 AM40 °FQuite cool.2 mph94%30.09 "HgN/A
5:00 AM41 °FFog.1 mph94%30.09 "Hg16 mi
4:00 AM42 °FQuite cool.2 mph96%30.08 "HgN/A
3:00 AM43 °FQuite cool.1 mph95%30.08 "HgN/A
2:00 AM46 °FClear.1 mph89%30.07 "Hg22 mi
1:00 AM46 °FCool.3 mph85%30.07 "HgN/A
12:00 AM49 °FCool.6 mph75%30.06 "HgN/A
11:00 PM
Thu, May 5
51 °FClear.6 mph69%30.06 "Hg25 mi
10:00 PM57 °FRefreshingly cool.2 mph53%30.03 "HgN/A
9:00 PM60 °FRefreshingly cool.8 mph46%30.02 "HgN/A
8:00 PM64 °FSunny.9 mph37%30.01 "Hg37 mi
7:00 PM66 °FMild.12 mph34%30.01 "HgN/A
Weather by CustomWeather, © 2016

See weather overviewHow to use our weather pages